Погода в Ньюкасле

ЮАР     27°45′17″S   29°55′44″E
В апреле 2022 года жителям России запретили посещать сайт meteo.paraplan.net по решению Генеральной прокуратуры. Аудитория сайта уменьшилась в 10 раз. Владельцы сайта не видят смысла в поддержке погодного сервера в таких условиях. Сайт будет закрыт в октябре.
темп.,
°C
ветер,
м/с
пор.,
м/с
влажн.,
%
обл.,
%
осадки,
мм/ч
давл.,
гПа
погр.,
м
3 октября, пн
пн323:00+20з12600 0.0 101794
02:00+18сз12600 0.0 101689
05:00+17сз13490 0.0 101563
08:00+25сз35250 0.0 1014437
11:00+35зсз3660 0.0 10103043
14:00+37зсз4660 0.0 10074437
17:00+35зсз4570 0.0 10062012
20:00+27зсз27110 0.0 1009167
4 октября, вт
вт423:00+23сз111721 0.0 101134
02:00+20юв11369 0.0 101233
05:00+16ююв128614 0.0 1014124
08:00+20юв22600 0.0 1016456
11:00+29юв32280 0.0 10121077
14:00+29юв663299 0.0 10101028
17:00+25вюв684323 0.8 1012883
20:00+19ююз1566100 2.1 1018302
5 октября, ср
ср523:00+16ю238010 0.0 1020303
02:00+15юз11855 0.0 1018138
05:00+15с13840 0.0 1018131
08:00+22ссз26540 0.0 1017489
11:00+33сз58210 0.0 10132002
14:00+36сз571111 0.0 10084971
17:00+34ссз57125 0.0 10082489
20:00+27сз311210 0.0 1012310
6 октября, чт
чт623:00+23с23310 0.0 101587
02:00+21сз23340 0.0 101472
05:00+20зсз14380 0.0 1014113
08:00+26сз13250 0.0 1015416
11:00+36сз24100 0.0 10113636
14:00+37зсз45824 0.0 10085390
17:00+35з3493 0.0 10071698
20:00+28ююв111843 0.1 101242
7 октября, пт
пт723:00+24вюв472989 0.1 1014230
02:00+19ююв36705 0.1 1015264
05:00+16в23846 0.0 1018163
08:00+19ююв347052 0.0 1022743
11:00+21юв535698 0.0 10221021
14:00+18юв666199 0.2 10221091
17:00+15вюв5770100 1.0 1025919
20:00+15вюв3573100 1.0 1028712